Location: ???? ?????
(37.9132°N, 22.9869°E)
Time: 17:18:34
(UTC+00:00)

CENTAUR R/B - Pass Details

Date: 04 August 2024
Orbit: 662 x 1522 km, 63.4° (Epoch: 18 September)

Event Time Altitude Azimuth Distance (km) Brightness Sun altitude
Rises 17:48:35 0° 332° (NNW) 4,147 6.7 -3.5°
Reaches altitude 10° 17:51:47 10° 344° (NNW) 3,307 5.9 -4.1°
Maximum altitude 17:58:39 28° 41° (NE) 2,420 4.4 -5.3°
Drops below altitude 10° 18:06:11 10° 96° (E) 3,659 4.9 -6.7°
Enters shadow 18:07:37 - 101° (E) 4,036 5.1 -6.9°
